Iowa Falls, IA

2:32 PM CST on December 17, 2017 (GMT -0600)
Iowa Falls Municipal

Weather History for KIFA - October, 2011

Change the Weather History Date:

Saturday, October 15, 2011

  Actual Average Record
Temperature  
Mean Temperature 50 °F -  
Max Temperature 62 °F 63 °F 88 °F (1953)
Min Temperature 37 °F 40 °F 24 °F (1972)
Degree Days  
Heating Degree Days 16    
Moisture  
Dew Point 34 °F    
Average Humidity 60    
Maximum Humidity 93    
Minimum Humidity 29    
Precipitation  
Precipitation 0.00 in - - ()
Sea Level Pressure  
Sea Level Pressure 29.94 in    
Wind  
Wind Speed 11 mph (West)    
Max Wind Speed 20 mph    
Max Gust Speed 25 mph    
Visibility 10 miles    
Events      
Averages and records for this station are not official NWS values.
T = Trace of Precipitation, MM = Missing Value Source: NWS Daily Summary

Daily Weather History Graph

Daily Weather History Graph

Search for Another Location

Airport or City:

Trip Planner

Search our weather history database for the weather conditions in past years. The results will help you decide how hot, cold, wet, or windy it might be!

Date:

Astronomy

Oct. 15, 2011 Rise Set
Actual Time 7:25 AM CDT 6:31 PM CDT
Civil Twilight 6:57 AM CDT 6:59 PM CDT
Nautical Twilight 6:24 AM CDT 7:32 PM CDT
Astronomical Twilight 5:52 AM CDT 8:04 PM CDT
Moon 8:23 PM CDT (10/15) 10:55 AM CDT (10/15)
Length of Visible Light 12h 02m
Length of Day
11h 05m
Waning Gibbous, 89% of the Moon is Illuminated
Oct 15
Waning Gibbous
Oct 19
Last Quarter
Oct 26
New
Nov 2
First Quarter
Nov 10
Full

Hourly Weather History & Observations

Time (CDT) Temp. Windchill Dew Point Humidity Pressure Visibility Wind Dir Wind Speed Gust Speed Precip Events Conditions
12:15 AM 44.6 °F 38.1 °F 35.6 °F 71% 29.91 in 10.0 mi WNW 13.8 mph - N/A   Clear
12:35 AM 44.6 °F 37.8 °F 35.6 °F 71% 29.91 in 10.0 mi WNW 15.0 mph 23.0 mph N/A   Clear
12:55 AM 44.6 °F 37.8 °F 35.6 °F 71% 29.92 in 10.0 mi WNW 15.0 mph 21.9 mph N/A   Clear
1:15 AM 44.6 °F 38.1 °F 35.6 °F 71% 29.92 in 10.0 mi WNW 13.8 mph 19.6 mph N/A   Clear
1:35 AM 44.6 °F 38.1 °F 35.6 °F 71% 29.92 in 10.0 mi WNW 13.8 mph 17.3 mph N/A   Clear
1:55 AM 42.8 °F 36.6 °F 35.6 °F 76% 29.93 in 10.0 mi WNW 11.5 mph - N/A   Clear
2:35 AM 41.0 °F 35.2 °F 35.6 °F 81% 29.94 in 10.0 mi West 9.2 mph - N/A   Clear
2:55 AM 41.0 °F 36.4 °F 35.6 °F 81% 29.94 in 10.0 mi West 6.9 mph - N/A   Clear
3:15 AM 41.0 °F 35.8 °F 35.6 °F 81% 29.94 in 10.0 mi West 8.1 mph - N/A   Clear
3:35 AM 41.0 °F 36.4 °F 35.6 °F 81% 29.94 in 10.0 mi West 6.9 mph - N/A   Clear
3:55 AM 39.2 °F 33.6 °F 35.6 °F 87% 29.94 in 10.0 mi West 8.1 mph - N/A   Clear
4:15 AM 37.4 °F 30.8 °F 35.6 °F 93% 29.95 in 10.0 mi West 9.2 mph - N/A   Clear
4:55 AM 39.2 °F 32.0 °F 35.6 °F 87% 29.95 in 10.0 mi West 11.5 mph - N/A   Clear
5:15 AM 39.2 °F 32.5 °F 35.6 °F 87% 29.96 in 10.0 mi West 10.4 mph 16.1 mph N/A   Clear
5:35 AM 37.4 °F 30.3 °F 33.8 °F 87% 29.96 in 10.0 mi West 10.4 mph - N/A   Clear
5:55 AM 37.4 °F 30.3 °F 33.8 °F 87% 29.96 in 10.0 mi West 10.4 mph - N/A   Clear
6:15 AM 37.4 °F 30.8 °F 33.8 °F 87% 29.97 in 10.0 mi West 9.2 mph - N/A   Clear
6:35 AM 37.4 °F 31.4 °F 33.8 °F 87% 29.97 in 10.0 mi West 8.1 mph - N/A   Clear
6:55 AM 37.4 °F 30.8 °F 33.8 °F 87% 29.96 in 10.0 mi West 9.2 mph - N/A   Clear
7:15 AM 37.4 °F 31.4 °F 33.8 °F 87% 29.97 in 10.0 mi West 8.1 mph - N/A   Clear
7:35 AM 37.4 °F 31.4 °F 33.8 °F 87% 29.97 in 10.0 mi West 8.1 mph - N/A   Clear
8:15 AM 41.0 °F 35.8 °F 35.6 °F 81% 29.98 in 10.0 mi West 8.1 mph - N/A   Clear
8:35 AM 41.0 °F 37.1 °F 35.6 °F 81% 29.99 in 10.0 mi WNW 5.8 mph - N/A   Clear
8:55 AM 42.8 °F 38.0 °F 35.6 °F 76% 29.99 in 10.0 mi WNW 8.1 mph - N/A   Clear
9:15 AM 44.6 °F 38.8 °F 35.6 °F 71% 30.00 in 10.0 mi West 11.5 mph 18.4 mph N/A   Clear
9:35 AM 46.4 °F 41.1 °F 35.6 °F 66% 30.00 in 10.0 mi WNW 11.5 mph 17.3 mph N/A   Clear
9:55 AM 46.4 °F 40.7 °F 35.6 °F 66% 30.00 in 10.0 mi WNW 12.7 mph - N/A   Clear
10:15 AM 50.0 °F - 35.6 °F 58% 30.00 in 10.0 mi WNW 12.7 mph 19.6 mph N/A   Clear
10:55 AM 51.8 °F - 35.6 °F 54% 30.00 in 10.0 mi WNW 15.0 mph 19.6 mph N/A   Clear
11:15 AM 53.6 °F - 35.6 °F 51% 30.00 in 10.0 mi West 15.0 mph 21.9 mph N/A   Clear
11:35 AM 53.6 °F - 35.6 °F 51% 30.00 in 10.0 mi WNW 19.6 mph 25.3 mph N/A   Scattered Clouds
11:55 AM 55.4 °F - 35.6 °F 47% 29.99 in 10.0 mi WNW 15.0 mph - N/A   Mostly Cloudy
12:15 PM 57.2 °F - 35.6 °F 44% 29.99 in 10.0 mi WNW 12.7 mph 18.4 mph N/A   Overcast
12:35 PM 57.2 °F - 33.8 °F 41% 29.97 in 10.0 mi West 12.7 mph 21.9 mph N/A   Scattered Clouds
12:55 PM 59.0 °F - 33.8 °F 39% 29.97 in 10.0 mi West 13.8 mph 19.6 mph N/A   Clear
1:15 PM 59.0 °F - 32.0 °F 36% 29.96 in 10.0 mi West 15.0 mph 21.9 mph N/A   Scattered Clouds
1:35 PM 59.0 °F - 32.0 °F 36% 29.96 in 10.0 mi West 16.1 mph 21.9 mph N/A   Scattered Clouds
1:55 PM 60.8 °F - 32.0 °F 34% 29.95 in 10.0 mi West 17.3 mph 21.9 mph N/A   Mostly Cloudy
2:15 PM 60.8 °F - 32.0 °F 34% 29.94 in 10.0 mi WSW 12.7 mph 23.0 mph N/A   Mostly Cloudy
2:35 PM 60.8 °F - 32.0 °F 34% 29.92 in 10.0 mi West 19.6 mph 24.2 mph N/A   Scattered Clouds
3:15 PM 60.8 °F - 28.4 °F 29% 29.91 in 10.0 mi West 11.5 mph - N/A   Scattered Clouds
3:35 PM 60.8 °F - 30.2 °F 31% 29.91 in 10.0 mi West 12.7 mph 16.1 mph N/A   Scattered Clouds
3:55 PM 60.8 °F - 30.2 °F 31% 29.89 in 10.0 mi WNW 5.8 mph - N/A   Mostly Cloudy
4:15 PM 60.8 °F - 30.2 °F 31% 29.89 in 10.0 mi WNW 6.9 mph - N/A   Mostly Cloudy
4:35 PM 60.8 °F - 30.2 °F 31% 29.89 in 10.0 mi NW 6.9 mph - N/A   Scattered Clouds
4:55 PM 62.6 °F - 30.2 °F 30% 29.88 in 10.0 mi WNW 3.5 mph - N/A   Scattered Clouds
5:15 PM 60.8 °F - 30.2 °F 31% 29.88 in 10.0 mi Calm Calm - N/A   Mostly Cloudy
5:35 PM 60.8 °F - 30.2 °F 31% 29.87 in 10.0 mi NW 3.5 mph - N/A   Scattered Clouds
5:55 PM 60.8 °F - 32.0 °F 34% 29.87 in 10.0 mi Calm Calm - N/A   Clear
6:15 PM 59.0 °F - 32.0 °F 36% 29.87 in 10.0 mi Calm Calm - N/A   Clear
6:35 PM 57.2 °F - 32.0 °F 38% 29.85 in 10.0 mi ESE 3.5 mph - N/A   Clear
6:55 PM 55.4 °F - 32.0 °F 41% 29.86 in 10.0 mi Calm Calm - N/A   Clear
7:15 PM 53.6 °F - 32.0 °F 44% 29.86 in 10.0 mi Calm Calm - N/A   Clear
7:35 PM 53.6 °F - 32.0 °F 44% 29.86 in 10.0 mi East 4.6 mph - N/A   Clear
7:55 PM 51.8 °F - 32.0 °F 47% 29.86 in 10.0 mi Calm Calm - N/A   Clear
8:15 PM 48.2 °F - 32.0 °F 54% 29.86 in 10.0 mi East 5.8 mph - N/A   Clear
8:35 PM 50.0 °F - 32.0 °F 50% 29.86 in 10.0 mi ESE 3.5 mph - N/A   Clear
9:15 PM 46.4 °F - 32.0 °F 57% 29.87 in 10.0 mi Calm Calm - N/A   Clear
9:35 PM 44.6 °F - 33.8 °F 66% 29.87 in 10.0 mi Calm Calm - N/A   Clear
9:55 PM 44.6 °F 42.2 °F 33.8 °F 66% 29.85 in 10.0 mi East 4.6 mph - N/A   Clear
10:15 PM 44.6 °F - 33.8 °F 66% 29.84 in 10.0 mi Calm Calm - N/A   Clear
10:35 PM 46.4 °F 45.2 °F 35.6 °F 66% 29.82 in 10.0 mi ESE 3.5 mph - N/A   Clear
10:55 PM 46.4 °F - 33.8 °F 62% 29.82 in 10.0 mi Calm Calm - N/A   Clear